Location: Koussan�
(15.2012°N, 12.5548°W)
Time: 17:31:08
(UTC+00:00)

Cosmos 1244 Rocket - Pass Details

Date: 20 October 2020
Orbit: 954 x 997 km, 82.9° (Epoch: 30 November)

Event Time Altitude Azimuth Distance (km) Brightness Sun altitude
Rises 19:55:20 0° 359° (N) 3,645 7.5 -22.0°
Reaches altitude 10° 19:57:49 10° 1° (N) 2,703 6.8 -22.6°
Maximum altitude 20:04:01 75° 86° (E) 1,006 4.3 -24.1°
Drops below altitude 10° 20:10:15 10° 171° (S) 2,730 6.8 -25.6°
Sets 20:12:47 0° 173° (S) 3,683 7.5 -26.2°
